Flag for U.S.A. Weather past 2 weeks in Myrtle Beach, South Carolina, U.S.A.

Now
50 °F

Overcast.


Feels Like: 47 °F
Forecast: 43 / 50 °F
Wind: 7 mph from Northeast

Location: Myrtle Beach Air Force Base

Current Time: Dec 20, 2014 at 3:02:24 AM

Latest Report: Dec 20, 2014 at 2:35 AM


Visibility: 10 mi

Pressure: 30.18 "Hg

Humidity: 76%

Dew point: 43 °F

Location of Myrtle BeachLocation

Historic Weather in Myrtle Beach — Graph

°F

Myrtle Beach temperature yesterday

Maximum temperature yesterday: 57 °F (at 12:45 PM)
Minimum temperature yesterday: 37 °F (at 6:45 AM)
Average temperature yesterday: 44 °F

Past Weeks' High & Low Weather Summary

 TemperatureHumidityPressure
High68 °F (Dec 6, 2:50 PM)94% (Dec 6, 7:45 PM)30.43 "Hg (Dec 6, 7:45 PM)
Low28 °F (Dec 12, 5:55 AM)21% (Dec 12, 3:45 PM)29.91 "Hg (Dec 9, 2:45 PM)
Average46 °F71%30.13 "Hg
* Reported Dec 5 1:15 AM — Dec 20 1:55 AM, Myrtle Beach, Weather by CustomWeather, © 2014

Note: Actual official high and low records may vary slightly from our data, if they occured in-between our weather recording intervals... More about our weather records

Advertising

Myrtle Beach weather history for previous 24 hours

 ConditionsComfort  
Time TempWeatherWind HumidityBarometerVisibility
1:55 AM
Dec 20
46 °FPassing clouds.3 mph82%30.19 "Hg10 mi
1:35 AM46 °FClear.5 mph82%30.19 "Hg10 mi
1:15 AM48 °FClear.7 mph76%30.19 "Hg10 mi
12:55 AM46 °FClear.6 mph82%30.19 "Hg10 mi
12:35 AM48 °FClear.5 mph82%30.19 "Hg10 mi
12:15 AM46 °FClear.5 mph82%30.19 "Hg10 mi
11:55 PM
Dec 19
46 °FClear.5 mph82%30.19 "Hg10 mi
11:35 PM45 °FClear.N/A81%30.19 "Hg10 mi
11:15 PM45 °FClear.5 mph76%30.18 "Hg10 mi
10:55 PM45 °FClear.No wind81%30.19 "Hg10 mi
9:45 PM46 °FClear.6 mph76%30.18 "Hg10 mi
8:45 PM45 °FClear.6 mph76%30.17 "Hg10 mi
7:45 PM46 °FClear.6 mph76%30.16 "Hg10 mi
5:45 PM52 °FClear.No wind62%30.16 "Hg10 mi
4:45 PM54 °FSunny.7 mph54%30.14 "Hg10 mi
3:45 PM55 °FSunny.8 mph47%30.14 "Hg10 mi
2:45 PM57 °FSunny.8 mph44%30.12 "Hg10 mi
1:53 PM57 °FSunny.7 mph44%30.12 "Hg10 mi
12:45 PM57 °FSunny.7 mph41%30.14 "Hg10 mi
11:45 AM55 °FSunny.8 mph44%30.15 "Hg10 mi
10:45 AM54 °FSunny.12 mph51%30.18 "Hg10 mi
8:45 AM45 °FSunny.8 mph71%30.16 "Hg10 mi
7:45 AM39 °FSunny.5 mph81%30.15 "Hg10 mi
6:45 AM37 °FClear.5 mph93%30.12 "Hg10 mi
5:35 AM39 °FClear.No wind87%30.11 "Hg10 mi
5:15 AM39 °FClear.3 mph87%30.10 "Hg10 mi
4:55 AM39 °FClear.8 mph87%30.09 "Hg10 mi
4:35 AM39 °FClear.No wind87%30.09 "Hg10 mi
4:15 AM39 °FClear.No wind81%30.09 "Hg10 mi
3:55 AM39 °FClear.No wind87%30.09 "Hg10 mi
3:35 AM39 °FClear.3 mph87%30.10 "Hg10 mi
3:15 AM39 °FClear.No wind87%30.10 "Hg10 mi
Weather by CustomWeather, © 2014

See weather overviewHow to use our weather pages